Find Starlink 30800

NORAD ID: 58206 Int'l Des: 2023-170 Owner: SPXS Country: US Constellation: starlink operational
LEOCIRCULAR

現在のビュー

3D地球を読み込み中...

About Starlink 30800

Starlink 30800 (NORAD 58206) is a starlink constellation satellite (v2 mini) launched Nov 4, 2023 by SPXS of US. It operates in LEO, CIRCULAR orbit with a mass of 730.00 kg.

Starlink 30800について

説明を読み込み中...

次回通過

Passes for default location (London). Set your location on the main map for personalized predictions.

高度履歴

Loading altitude history...

軌道要素

1 58206U 23170A 26170.16004544 -.00000523 00000-0 -94706-5 0 9997
2 58206 43.0020 341.5510 0001205 253.4216 106.6503 15.27571290145811
Epoch: Jun 19, 2026 • Age: 10 hours

現在のステータス

高度 486.8 km
速度 7.63 km/s
衛星直下点 42.29°N, 29.88°W
打ち上げ日 Nov 4, 2023
運用期間 2.6 years
タイプ internet

技術仕様

分類 Payload
質量 730.00 kg
乾燥質量 700.00 kg
総質量 730.00 kg
長さ 0.30 m
直径 4.10 m
スパン 29.00 m
形状 Box + pan
製造者 SPXS
バスタイプ Starlink V2M
フェーズステータス In Orbit
所有者/国 SPXS/US

Most Searched